Total_Precipitation_Accumulation
0.00 0.00 0.00 0.00 0.00 0.00 0.00 0.02 0.01 0.00 0.00 0.00 0.00 0.00 0.00 0.00 0.00 0.00 0.00 0.03 0.00 0.01 0.00 0.00 0.00 0.00 0.02 0.01 0.00 0.02 0.02 0.09 0.03 0.02 0.09 0.15 0.45 0.16 0.19 0.09 0.14 0.18 0.30 0.31 0.36 0.57 0.38 0.28 0.30 0.47 0.75 0.71 0.79 0.84 0.37 0.28 0.16 0.10 0.13 0.12 0.14 0.13 0.15 0.25 0.24 0.13 0.08 0.05 0.05 0.04 0.02 0.01 0.04 0.02 0.02 0.02 0.03 0.03 0.02 0.01 0.02 0.02 0.01 0.00 0.01 0.01 0.01 0.01 0.01 0.01 0.00 0.01 0.00 0.01 0.00 0.00 0.01
0.00 0.00 0.00 0.00 0.00 0.00 0.06 0.00 0.03 0.00 0.00 0.00 0.00 0.00 0.00 0.00 0.01 0.00 0.00 0.00 0.00 0.00 0.00 0.00 0.00 0.00 0.00 0.00 0.00 0.00 0.01 0.01 0.01 0.01 0.09 0.13 0.18 0.19 0.22 0.16 0.09 0.19 0.06 0.13 0.21 0.35 0.29 0.35 0.25 0.52 0.61 0.77 0.65 0.42 0.31 0.30 0.22 0.15 0.19 0.09 0.17 0.22 0.28 0.09 0.06 0.07 0.04 0.03 0.02 0.02 0.02 0.05 0.01 0.02 0.02 0.00 0.00 0.02 0.02 0.01 0.00 0.00 0.01 0.01 0.01 0.00 0.01 0.01 0.00 0.01 0.01 0.02 0.03 0.01 0.03 0.01 0.01
0.00 0.00 0.00 0.01 0.02 0.01 0.02 0.01 0.01 0.01 0.00 0.00 0.00 0.00 0.00 0.00 0.00 0.00 0.00 0.00 0.00 0.00 0.00 0.00 0.00 0.00 0.00 0.00 0.01 0.01 0.08 0.04 0.01 0.04 0.08 0.09 0.12 0.26 0.17 0.27 0.03 0.06 0.07 0.09 0.16 0.16 0.26 0.29 0.20 0.71 0.70 0.46 0.37 0.34 0.34 0.20 0.12 0.15 0.17 0.07 0.09 0.13 0.10 0.05 0.04 0.03 0.03 0.02 0.03 0.04 0.02 0.02 0.02 0.00 0.01 0.02 0.01 0.02 0.01 0.03 0.02 0.02 0.01 0.01 0.00 0.03 0.03 0.00 0.02 0.02 0.02 0.02 0.02 0.03 0.03 0.03 0.02
0.00 0.00 0.00 0.01 0.13 0.02 0.02 0.01 0.00 0.00 0.00 0.00 0.00 0.00 0.00 0.00 0.00 0.00 0.00 0.00 0.00 0.00 0.00 0.00 0.00 0.00 0.00 0.00 0.00 0.00 0.02 0.05 0.01 0.01 0.11 0.25 0.12 0.07 0.07 0.11 0.09 0.04 0.07 0.10 0.10 0.18 0.28 0.18 0.18 0.65 0.59 0.50 0.33 0.25 0.20 0.16 0.12 0.10 0.08 0.07 0.06 0.09 0.07 0.04 0.03 0.03 0.03 0.01 0.02 0.03 0.01 0.02 0.02 0.01 0.01 0.01 0.04 0.03 0.02 0.02 0.01 0.03 0.02 0.01 0.03 0.01 0.01 0.01 0.01 0.00 0.00 0.01 0.02 0.03 0.03 0.02 0.01
0.00 0.00 0.01 0.01 0.06 0.03 0.04 0.00 0.00 0.00 0.00 0.00 0.00 0.00 0.00 0.00 0.00 0.00 0.00 0.00 0.00 0.00 0.00 0.00 0.00 0.00 0.00 0.00 0.00 0.01 0.02 0.05 0.06 0.03 0.09 0.08 0.04 0.11 0.12 0.06 0.10 0.10 0.10 0.14 0.15 0.18 0.22 0.15 0.18 0.49 0.48 0.31 0.24 0.23 0.30 0.19 0.15 0.12 0.05 0.03 0.04 0.05 0.06 0.05 0.04 0.03 0.01 0.01 0.02 0.03 0.01 0.02 0.03 0.02 0.02 0.05 0.04 0.02 0.02 0.03 0.01 0.02 0.02 0.03 0.02 0.02 0.01 0.01 0.01 0.01 0.02 0.01 0.02 0.02 0.02 0.02 0.01
0.00 0.00 0.00 0.02 0.03 0.00 0.00 0.01 0.00 0.00 0.00 0.00 0.00 0.00 0.00 0.00 0.00 0.00 0.00 0.00 0.00 0.00 0.00 0.00 0.00 0.00 0.00 0.00 0.00 0.01 0.02 0.07 0.01 0.02 0.01 0.07 0.05 0.01 0.05 0.05 0.08 0.07 0.06 0.10 0.08 0.10 0.20 0.14 0.16 0.14 0.30 0.29 0.16 0.18 0.16 0.14 0.13 0.08 0.04 0.05 0.02 0.06 0.04 0.02 0.04 0.03 0.01 0.02 0.02 0.02 0.02 0.04 0.03 0.02 0.01 0.02 0.03 0.01 0.01 0.01 0.01 0.01 0.01 0.01 0.03 0.01 0.01 0.01 0.00 0.00 0.01 0.02 0.02 0.02 0.01 0.01 0.00
0.01 0.00 0.00 0.01 0.01 0.04 0.02 0.00 0.00 0.00 0.00 0.00 0.00 0.00 0.00 0.00 0.00 0.00 0.00 0.00 0.00 0.00 0.00 0.00 0.00 0.00 0.00 0.00 0.00 0.02 0.01 0.00 0.00 0.00 0.01 0.01 0.03 0.02 0.03 0.03 0.03 0.05 0.06 0.05 0.09 0.16 0.24 0.16 0.16 0.35 0.27 0.18 0.19 0.29 0.25 0.12 0.05 0.08 0.07 0.06 0.04 0.07 0.03 0.02 0.03 0.03 0.02 0.02 0.02 0.03 0.03 0.02 0.04 0.02 0.01 0.02 0.02 0.03 0.00 0.00 0.01 0.01 0.01 0.01 0.02 0.01 0.01 0.01 0.01 0.02 0.01 0.01 0.01 0.00 0.00 0.01 0.01
0.00 0.01 0.00 0.04 0.03 0.03 0.00 0.00 0.00 0.00 0.00 0.00 0.00 0.00 0.00 0.00 0.00 0.00 0.00 0.00 0.00 0.00 0.00 0.00 0.00 0.00 0.01 0.01 0.09 0.09 0.01 0.00 0.00 0.00 0.00 0.00 0.01 0.02 0.03 0.02 0.02 0.04 0.04 0.05 0.06 0.14 0.17 0.16 0.15 0.12 0.20 0.14 0.18 0.15 0.19 0.11 0.08 0.09 0.05 0.07 0.03 0.07 0.06 0.05 0.05 0.04 0.03 0.04 0.04 0.03 0.01 0.02 0.03 0.02 0.02 0.01 0.01 0.01 0.01 0.01 0.00 0.01 0.00 0.01 0.02 0.01 0.01 0.00 0.00 0.00 0.01 0.01 0.01 0.00 0.00 0.00 0.00
0.00 0.00 0.00 0.01 0.00 0.00 0.00 0.00 0.00 0.00 0.00 0.00 0.00 0.00 0.00 0.00 0.00 0.00 0.00 0.00 0.00 0.00 0.00 0.00 0.00 0.01 0.04 0.00 0.03 0.02 0.00 0.00 0.00 0.00 0.00 0.01 0.02 0.01 0.01 0.02 0.02 0.04 0.04 0.04 0.07 0.09 0.11 0.19 0.22 0.10 0.13 0.15 0.08 0.14 0.09 0.09 0.06 0.08 0.07 0.06 0.05 0.04 0.06 0.04 0.04 0.03 0.03 0.04 0.02 0.03 0.03 0.03 0.03 0.02 0.02 0.01 0.02 0.01 0.01 0.00 0.02 0.01 0.01 0.01 0.01 0.00 0.00 0.00 0.00 0.00 0.00 0.00 0.00 0.00 0.00 0.00 0.01
0.02 0.00 0.01 0.00 0.03 0.06 0.07 0.00 0.00 0.00 0.00 0.00 0.00 0.00 0.00 0.00 0.00 0.00 0.00 0.00 0.00 0.00 0.00 0.00 0.00 0.00 0.00 0.00 0.02 0.02 0.02 0.01 0.00 0.00 0.01 0.01 0.00 0.01 0.02 0.02 0.02 0.01 0.01 0.03 0.05 0.09 0.09 0.14 0.06 0.11 0.14 0.05 0.10 0.16 0.08 0.09 0.03 0.04 0.04 0.03 0.06 0.04 0.03 0.04 0.05 0.03 0.04 0.01 0.03 0.01 0.01 0.01 0.01 0.02 0.01 0.01 0.00 0.00 0.00 0.00 0.01 0.00 0.00 0.00 0.00 0.00 0.00 0.01 0.01 0.00 0.01 0.00 0.01 0.00 0.01 0.01 0.00
0.02 0.00 0.00 0.02 0.01 0.02 0.01 0.00 0.00 0.00 0.00 0.00 0.00 0.00 0.00 0.00 0.00 0.00 0.00 0.00 0.00 0.00 0.00 0.00 0.00 0.00 0.00 0.02 0.03 0.01 0.01 0.02 0.01 0.01 0.01 0.02 0.01 0.01 0.01 0.01 0.02 0.00 0.01 0.04 0.05 0.04 0.05 0.08 0.05 0.04 0.08 0.03 0.07 0.08 0.10 0.03 0.02 0.03 0.03 0.04 0.05 0.04 0.05 0.03 0.05 0.02 0.03 0.03 0.01 0.00 0.01 0.01 0.00 0.00 0.00 0.00 0.00 0.00 0.00 0.00 0.00 0.00 0.00 0.00 0.00 0.00 0.00 0.00 0.00 0.00 0.01 0.02 0.00 0.00 0.00 0.00 0.00
0.03 0.00 0.00 0.00 0.02 0.08 0.02 0.03 0.00 0.00 0.00 0.00 0.00 0.00 0.00 0.00 0.00 0.00 0.00 0.00 0.00 0.00 0.00 0.00 0.00 0.00 0.00 0.00 0.06 0.06 0.00 0.02 0.02 0.01 0.01 0.01 0.01 0.00 0.01 0.02 0.01 0.00 0.00 0.01 0.02 0.05 0.03 0.07 0.07 0.13 0.05 0.05 0.05 0.04 0.05 0.04 0.03 0.01 0.02 0.02 0.03 0.04 0.04 0.03 0.04 0.03 0.07 0.02 0.03 0.01 0.01 0.00 0.01 0.00 0.00 0.00 0.00 0.00 0.00 0.00 0.00 0.00 0.00 0.00 0.00 0.01 0.01 0.00 0.00 0.01 0.03 0.08 0.04 0.01 0.01 0.01 0.00
0.02 0.00 0.04 0.03 0.01 0.03 0.05 0.06 0.01 0.00 0.00 0.00 0.00 0.00 0.00 0.00 0.00 0.00 0.00 0.00 0.00 0.00 0.00 0.00 0.00 0.00 0.00 0.01 0.06 0.02 0.03 0.00 0.00 0.00 0.00 0.00 0.01 0.01 0.02 0.01 0.01 0.01 0.00 0.01 0.02 0.02 0.04 0.05 0.06 0.08 0.05 0.10 0.09 0.06 0.04 0.03 0.04 0.02 0.02 0.04 0.03 0.04 0.05 0.04 0.01 0.02 0.03 0.02 0.04 0.03 0.02 0.02 0.01 0.00 0.00 0.00 0.00 0.00 0.00 0.00 0.00 0.00 0.00 0.00 0.00 0.00 0.01 0.00 0.00 0.01 0.09 0.08 0.05 0.02 0.08 0.02 0.02
0.01 0.00 0.00 0.00 0.03 0.01 0.01 0.01 0.04 0.04 0.00 0.00 0.00 0.00 0.00 0.00 0.00 0.00 0.00 0.00 0.00 0.00 0.00 0.00 0.00 0.00 0.00 0.00 0.12 0.02 0.01 0.01 0.00 0.00 0.00 0.00 0.01 0.01 0.01 0.03 0.02 0.02 0.01 0.02 0.02 0.02 0.04 0.04 0.04 0.05 0.06 0.11 0.13 0.09 0.06 0.04 0.01 0.02 0.02 0.02 0.03 0.02 0.01 0.00 0.02 0.01 0.01 0.02 0.01 0.02 0.01 0.01 0.00 0.00 0.01 0.01 0.01 0.02 0.00 0.00 0.00 0.01 0.00 0.01 0.01 0.00 0.00 0.01 0.02 0.06 0.06 0.13 0.14 0.08 0.06 0.05 0.09
0.00 0.00 0.01 0.02 0.00 0.00 0.02 0.08 0.03 0.01 0.00 0.00 0.00 0.00 0.00 0.00 0.00 0.00 0.00 0.00 0.00 0.00 0.00 0.00 0.00 0.00 0.00 0.00 0.02 0.00 0.01 0.01 0.00 0.01 0.00 0.00 0.01 0.03 0.03 0.01 0.02 0.01 0.02 0.02 0.05 0.06 0.03 0.03 0.02 0.04 0.04 0.07 0.06 0.10 0.17 0.06 0.04 0.04 0.02 0.02 0.02 0.01 0.03 0.02 0.01 0.01 0.00 0.00 0.01 0.01 0.00 0.00 0.00 0.00 0.01 0.02 0.01 0.00 0.00 0.00 0.00 0.00 0.00 0.02 0.03 0.03 0.03 0.04 0.08 0.07 0.19 0.09 0.12 0.13 0.08 0.13 0.12
0.00 0.00 0.00 0.00 0.00 0.00 0.00 0.02 0.00 0.00 0.00 0.00 0.00 0.00 0.00 0.00 0.00 0.00 0.00 0.01 0.00 0.00 0.00 0.00 0.00 0.00 0.00 0.00 0.00 0.00 0.00 0.00 0.00 0.00 0.00 0.01 0.02 0.03 0.04 0.02 0.02 0.02 0.01 0.02 0.08 0.05 0.02 0.03 0.05 0.07 0.08 0.04 0.04 0.06 0.07 0.09 0.04 0.05 0.04 0.04 0.02 0.04 0.02 0.02 0.02 0.02 0.03 0.02 0.03 0.02 0.02 0.01 0.01 0.01 0.03 0.02 0.01 0.01 0.00 0.00 0.00 0.02 0.02 0.02 0.11 0.06 0.02 0.01 0.13 0.11 0.16 0.34 0.44 0.19 0.20 0.29 0.33
0.00 0.00 0.00 0.00 0.00 0.00 0.00 0.00 0.02 0.03 0.00 0.00 0.00 0.00 0.00 0.00 0.00 0.00 0.00 0.00 0.00 0.00 0.00 0.00 0.00 0.00 0.00 0.00 0.00 0.00 0.00 0.00 0.00 0.00 0.00 0.02 0.03 0.07 0.08 0.05 0.03 0.03 0.03 0.05 0.07 0.06 0.04 0.07 0.04 0.11 0.07 0.03 0.10 0.05 0.06 0.07 0.05 0.07 0.07 0.06 0.05 0.04 0.06 0.03 0.03 0.05 0.02 0.02 0.02 0.01 0.03 0.02 0.02 0.02 0.04 0.04 0.02 0.03 0.00 0.00 0.01 0.00 0.02 0.13 0.30 0.25 0.10 0.08 0.13 0.20 0.28 0.49 0.46 0.22 0.29 0.54 0.42
0.00 0.00 0.00 0.00 0.00 0.00 0.00 0.00 0.00 0.00 0.00 0.00 0.00 0.00 0.00 0.00 0.00 0.00 0.00 0.00 0.00 0.00 0.00 0.00 0.00 0.00 0.00 0.00 0.00 0.00 0.00 0.00 0.00 0.00 0.01 0.03 0.02 0.04 0.04 0.04 0.04 0.06 0.04 0.09 0.08 0.06 0.06 0.14 0.05 0.08 0.08 0.07 0.08 0.05 0.04 0.04 0.11 0.11 0.10 0.05 0.03 0.04 0.02 0.04 0.02 0.03 0.03 0.02 0.02 0.01 0.02 0.04 0.11 0.12 0.12 0.04 0.01 0.03 0.03 0.01 0.01 0.01 0.01 0.10 0.22 0.39 0.21 0.13 0.10 0.18 0.40 0.38 0.50 0.29 0.31 0.28 0.47
0.00 0.00 0.00 0.00 0.00 0.00 0.00 0.00 0.00 0.00 0.00 0.00 0.00 0.00 0.00 0.00 0.00 0.00 0.02 0.00 0.00 0.00 0.00 0.00 0.00 0.00 0.00 0.00 0.00 0.00 0.00 0.00 0.00 0.00 0.00 0.01 0.02 0.01 0.04 0.02 0.02 0.02 0.04 0.04 0.10 0.05 0.04 0.06 0.05 0.04 0.05 0.06 0.07 0.08 0.10 0.10 0.05 0.06 0.09 0.06 0.04 0.03 0.02 0.01 0.03 0.03 0.05 0.04 0.19 0.11 0.10 0.08 0.04 0.10 0.11 0.11 0.04 0.03 0.02 0.04 0.05 0.04 0.08 0.08 0.21 0.38 0.45 0.38 0.17 0.30 0.33 0.43 0.47 0.50 0.23 0.21 0.28
0.00 0.00 0.00 0.00 0.00 0.00 0.00 0.00 0.00 0.00 0.00 0.00 0.00 0.00 0.00 0.00 0.00 0.00 0.01 0.01 0.00 0.02 0.02 0.00 0.00 0.01 0.00 0.00 0.00 0.00 0.00 0.00 0.00 0.00 0.00 0.00 0.00 0.01 0.01 0.02 0.02 0.02 0.03 0.06 0.02 0.05 0.03 0.06 0.04 0.05 0.03 0.05 0.07 0.06 0.08 0.32 0.07 0.05 0.07 0.08 0.05 0.03 0.05 0.02 0.11 0.08 0.14 0.04 0.14 0.07 0.10 0.05 0.11 0.19 0.06 0.03 0.06 0.02 0.05 0.09 0.06 0.11 0.09 0.14 0.12 0.31 0.37 0.41 0.30 0.17 0.16 0.27 0.32 0.33 0.24 0.16 0.03
0.00 0.00 0.00 0.00 0.00 0.00 0.00 0.00 0.00 0.00 0.00 0.00 0.00 0.00 0.00 0.00 0.00 0.00 0.00 0.00 0.00 0.00 0.00 0.00 0.00 0.00 0.00 0.00 0.00 0.00 0.00 0.00 0.00 0.00 0.00 0.00 0.01 0.02 0.00 0.01 0.02 0.01 0.01 0.03 0.05 0.06 0.03 0.02 0.02 0.02 0.04 0.08 0.05 0.02 0.03 0.12 0.04 0.04 0.07 0.18 0.13 0.06 0.04 0.07 0.04 0.17 0.12 0.17 0.13 0.12 0.11 0.10 0.19 0.08 0.09 0.13 0.03 0.04 0.11 0.04 0.20 0.22 0.15 0.22 0.03 0.18 0.35 0.20 0.30 0.25 0.05 0.08 0.14 0.24 0.31 0.12 0.17
0.00 0.00 0.00 0.00 0.00 0.00 0.00 0.00 0.00 0.00 0.00 0.00 0.00 0.00 0.00 0.00 0.00 0.00 0.04 0.11 0.00 0.00 0.00 0.00 0.00 0.00 0.00 0.00 0.00 0.00 0.00 0.00 0.00 0.00 0.00 0.00 0.00 0.00 0.00 0.01 0.00 0.01 0.02 0.01 0.02 0.10 0.02 0.01 0.01 0.08 0.03 0.05 0.04 0.02 0.03 0.02 0.03 0.05 0.06 0.08 0.04 0.05 0.07 0.05 0.18 0.10 0.16 0.15 0.18 0.07 0.05 0.11 0.10 0.05 0.07 0.10 0.03 0.04 0.13 0.10 0.09 0.25 0.12 0.06 0.15 0.17 0.23 0.27 0.22 0.14 0.05 0.08 0.04 0.16 0.17 0.20 0.17
0.00 0.00 0.00 0.00 0.00 0.00 0.00 0.00 0.00 0.00 0.00 0.00 0.00 0.00 0.00 0.00 0.00 0.00 0.00 0.15 0.01 0.00 0.00 0.00 0.00 0.00 0.00 0.00 0.00 0.00 0.00 0.00 0.00 0.00 0.00 0.00 0.00 0.00 0.00 0.00 0.00 0.00 0.00 0.00 0.02 0.03 0.01 0.01 0.01 0.02 0.03 0.02 0.03 0.02 0.02 0.01 0.02 0.09 0.17 0.14 0.03 0.04 0.04 0.05 0.05 0.22 0.35 0.26 0.12 0.10 0.07 0.10 0.06 0.05 0.10 0.14 0.24 0.31 0.10 0.09 0.13 0.19 0.05 0.04 0.06 0.07 0.11 0.26 0.23 0.10 0.05 0.08 0.12 0.13 0.11 0.05 0.03
0.00 0.00 0.00 0.00 0.00 0.00 0.00 0.00 0.00 0.00 0.00 0.00 0.00 0.00 0.00 0.00 0.00 0.00 0.00 0.00 0.00 0.00 0.00 0.00 0.00 0.00 0.00 0.00 0.00 0.00 0.00 0.00 0.00 0.00 0.00 0.00 0.00 0.00 0.00 0.00 0.00 0.00 0.00 0.00 0.00 0.01 0.01 0.00 0.01 0.02 0.03 0.02 0.02 0.02 0.03 0.02 0.04 0.10 0.05 0.10 0.02 0.02 0.02 0.04 0.08 0.16 0.20 0.15 0.09 0.08 0.05 0.12 0.15 0.15 0.08 0.15 0.43 0.20 0.28 0.52 0.44 0.12 0.04 0.02 0.06 0.08 0.03 0.02 0.14 0.03 0.08 0.21 0.13 0.14 0.07 0.19 0.22
0.00 0.00 0.00 0.00 0.00 0.00 0.00 0.00 0.00 0.00 0.00 0.00 0.00 0.00 0.00 0.00 0.00 0.00 0.00 0.00 0.00 0.00 0.00 0.00 0.00 0.00 0.00 0.00 0.00 0.00 0.00 0.00 0.00 0.00 0.00 0.00 0.00 0.00 0.00 0.00 0.00 0.00 0.00 0.00 0.00 0.00 0.00 0.01 0.01 0.02 0.02 0.02 0.03 0.03 0.07 0.14 0.09 0.13 0.12 0.10 0.02 0.11 0.03 0.10 0.19 0.28 0.33 0.27 0.15 0.06 0.10 0.08 0.18 0.29 0.12 0.32 0.39 0.13 0.22 0.20 0.20 0.32 0.18 0.11 0.04 0.03 0.02 0.04 0.06 0.04 0.05 0.04 0.12 0.32 0.56 0.30 0.19
0.00 0.00 0.00 0.00 0.00 0.00 0.00 0.00 0.00 0.00 0.00 0.00 0.00 0.00 0.00 0.00 0.00 0.00 0.00 0.00 0.00 0.00 0.00 0.00 0.00 0.00 0.00 0.00 0.00 0.00 0.00 0.00 0.00 0.00 0.00 0.00 0.00 0.00 0.00 0.00 0.00 0.00 0.00 0.00 0.00 0.00 0.00 0.02 0.01 0.05 0.02 0.02 0.02 0.05 0.08 0.07 0.16 0.23 0.17 0.11 0.11 0.09 0.07 0.08 0.21 0.26 0.38 0.33 0.08 0.14 0.06 0.09 0.03 0.03 0.04 0.22 0.19 0.14 0.16 0.04 0.03 0.10 0.14 0.03 0.05 0.05 0.09 0.10 0.07 0.04 0.03 0.02 0.01 0.19 0.25 0.19 0.34
0.00 0.00 0.00 0.00 0.00 0.00 0.00 0.00 0.00 0.00 0.00 0.00 0.00 0.00 0.00 0.00 0.00 0.00 0.00 0.00 0.00 0.00 0.00 0.00 0.00 0.00 0.00 0.00 0.00 0.00 0.00 0.00 0.00 0.00 0.00 0.00 0.00 0.00 0.00 0.00 0.00 0.00 0.00 0.00 0.00 0.00 0.00 0.01 0.01 0.01 0.02 0.02 0.02 0.04 0.03 0.03 0.04 0.05 0.13 0.15 0.21 0.33 0.26 0.26 0.43 0.43 0.46 0.10 0.10 0.18 0.03 0.09 0.05 0.02 0.12 0.10 0.10 0.22 0.12 0.07 0.02 0.04 0.05 0.11 0.10 0.11 0.08 0.04 0.04 0.04 0.05 0.05 0.10 0.03 0.01 0.08 0.06
0.00 0.00 0.00 0.00 0.00 0.00 0.00 0.00 0.00 0.00 0.00 0.00 0.00 0.00 0.00 0.00 0.00 0.00 0.00 0.00 0.00 0.00 0.00 0.00 0.00 0.00 0.00 0.00 0.00 0.00 0.00 0.00 0.00 0.00 0.00 0.00 0.00 0.00 0.00 0.00 0.00 0.00 0.00 0.00 0.00 0.00 0.00 0.00 0.00 0.01 0.01 0.02 0.02 0.02 0.02 0.02 0.03 0.02 0.03 0.03 0.16 0.25 0.30 0.29 0.31 0.13 0.06 0.05 0.05 0.03 0.04 0.05 0.11 0.01 0.05 0.04 0.09 0.10 0.09 0.05 0.13 0.08 0.07 0.09 0.11 0.09 0.09 0.12 0.07 0.08 0.05 0.07 0.08 0.08 0.03 0.02 0.02
0.00 0.00 0.00 0.00 0.00 0.00 0.00 0.00 0.00 0.00 0.00 0.00 0.00 0.00 0.00 0.00 0.00 0.00 0.00 0.00 0.00 0.00 0.00 0.00 0.00 0.00 0.00 0.00 0.00 0.01 0.00 0.00 0.00 0.00 0.00 0.00 0.00 0.00 0.00 0.00 0.00 0.00 0.00 0.00 0.00 0.00 0.00 0.00 0.00 0.00 0.01 0.01 0.02 0.02 0.01 0.01 0.02 0.01 0.03 0.09 0.09 0.04 0.04 0.04 0.09 0.02 0.02 0.04 0.06 0.01 0.02 0.02 0.03 0.01 0.02 0.03 0.02 0.03 0.08 0.14 0.07 0.04 0.08 0.06 0.07 0.17 0.13 0.14 0.12 0.06 0.05 0.14 0.13 0.10 0.09 0.05 0.01
0.00 0.00 0.00 0.00 0.00 0.00 0.00 0.00 0.00 0.00 0.00 0.00 0.00 0.06 0.00 0.00 0.00 0.00 0.00 0.00 0.00 0.00 0.00 0.00 0.00 0.00 0.00 0.00 0.00 0.00 0.00 0.01 0.00 0.00 0.00 0.00 0.00 0.00 0.00 0.00 0.00 0.00 0.00 0.00 0.00 0.00 0.00 0.00 0.00 0.00 0.00 0.01 0.01 0.01 0.01 0.02 0.01 0.01 0.03 0.06 0.01 0.02 0.00 0.01 0.02 0.01 0.03 0.02 0.06 0.09 0.04 0.01 0.01 0.03 0.05 0.06 0.04 0.09 0.07 0.19 0.12 0.15 0.07 0.09 0.15 0.16 0.12 0.12 0.12 0.19 0.08 0.23 0.21 0.12 0.03 0.05 0.02
0.00 0.00 0.00 0.00 0.00 0.00 0.00 0.00 0.00 0.00 0.00 0.00 0.01 0.01 0.00 0.00 0.00 0.00 0.00 0.00 0.00 0.00 0.00 0.00 0.00 0.00 0.00 0.00 0.00 0.00 0.00 0.00 0.00 0.00 0.00 0.00 0.00 0.00 0.00 0.01 0.01 0.01 0.01 0.00 0.00 0.01 0.00 0.00 0.00 0.01 0.01 0.02 0.01 0.01 0.01 0.02 0.01 0.04 0.01 0.02 0.01 0.01 0.01 0.01 0.00 0.01 0.03 0.01 0.01 0.15 0.14 0.16 0.13 0.33 0.27 0.15 0.04 0.04 0.04 0.03 0.13 0.12 0.18 0.18 0.12 0.14 0.14 0.24 0.13 0.29 0.22 0.13 0.12 0.05 0.13 0.06 0.10
0.00 0.00 0.00 0.02 0.03 0.00 0.00 0.00 0.00 0.00 0.00 0.00 0.00 0.01 0.00 0.00 0.00 0.00 0.00 0.00 0.00 0.00 0.00 0.01 0.00 0.00 0.00 0.00 0.01 0.00 0.00 0.00 0.00 0.00 0.00 0.00 0.00 0.01 0.01 0.01 0.00 0.00 0.00 0.01 0.01 0.01 0.02 0.03 0.02 0.02 0.02 0.02 0.02 0.02 0.03 0.02 0.03 0.02 0.02 0.01 0.02 0.02 0.01 0.02 0.05 0.25 0.22 0.15 0.06 0.04 0.04 0.10 0.26 0.85 0.42 0.32 0.17 0.04 0.03 0.06 0.21 0.25 0.19 0.32 0.30 0.34 0.31 0.22 0.33 0.22 0.14 0.20 0.08 0.05 0.05 0.05 0.05
0.00 0.00 0.00 0.00 0.01 0.02 0.00 0.00 0.00 0.00 0.00 0.00 0.06 0.00 0.00 0.00 0.00 0.00 0.00 0.00 0.00 0.00 0.00 0.00 0.00 0.00 0.00 0.00 0.00 0.01 0.01 0.01 0.01 0.00 0.00 0.00 0.03 0.11 0.01 0.01 0.01 0.01 0.01 0.01 0.01 0.01 0.02 0.01 0.01 0.01 0.00 0.01 0.01 0.02 0.03 0.02 0.02 0.03 0.04 0.02 0.02 0.04 0.03 0.03 0.03 0.04 0.05 0.09 0.16 0.10 0.12 0.16 0.12 0.36 0.46 0.23 0.24 0.12 0.11 0.08 0.07 0.11 0.22 0.35 0.22 0.23 0.17 0.22 0.30 0.26 0.25 0.24 0.20 0.10 0.07 0.06 0.04
0.00 0.00 0.00 0.00 0.00 0.00 0.00 0.00 0.00 0.00 0.00 0.00 0.00 0.01 0.00 0.00 0.00 0.00 0.00 0.00 0.00 0.00 0.00 0.00 0.00 0.00 0.00 0.02 0.00 0.00 0.00 0.01 0.01 0.00 0.00 0.01 0.05 0.13 0.11 0.03 0.02 0.01 0.00 0.01 0.01 0.01 0.01 0.02 0.01 0.01 0.01 0.01 0.01 0.01 0.01 0.01 0.02 0.02 0.03 0.03 0.04 0.08 0.70 0.22 0.05 0.02 0.03 0.06 0.10 0.08 0.08 0.14 0.29 0.61 0.35 0.46 0.18 0.16 0.14 0.09 0.11 0.16 0.20 0.26 0.26 0.18 0.31 0.37 0.26 0.30 0.28 0.35 0.27 0.22 0.15 0.08 0.06
0.00 0.00 0.00 0.00 0.00 0.00 0.01 0.00 0.00 0.00 0.00 0.01 0.00 0.05 0.00 0.00 0.00 0.00 0.00 0.00 0.00 0.00 0.00 0.00 0.00 0.00 0.00 0.00 0.02 0.02 0.00 0.00 0.01 0.00 0.00 0.02 0.02 0.03 0.07 0.07 0.01 0.00 0.01 0.00 0.00 0.00 0.01 0.02 0.01 0.01 0.01 0.01 0.01 0.01 0.02 0.01 0.01 0.02 0.03 0.02 0.03 0.08 0.73 0.44 0.08 0.04 0.01 0.04 0.08 0.18 0.28 0.19 0.31 0.52 0.64 0.72 0.24 0.14 0.08 0.14 0.12 0.11 0.15 0.17 0.25 0.26 0.24 0.23 0.24 0.15 0.13 0.25 0.25 0.16 0.22 0.20 0.31
0.00 0.00 0.00 0.00 0.00 0.00 0.02 0.00 0.00 0.00 0.00 0.00 0.00 0.01 0.00 0.00 0.00 0.00 0.00 0.00 0.00 0.00 0.00 0.00 0.00 0.00 0.00 0.00 0.00 0.00 0.00 0.00 0.03 0.02 0.02 0.03 0.01 0.02 0.02 0.01 0.01 0.03 0.00 0.01 0.03 0.00 0.01 0.02 0.01 0.01 0.01 0.01 0.03 0.02 0.02 0.06 0.06 0.07 0.20 0.20 0.12 0.05 0.31 0.07 0.10 0.26 0.18 0.04 0.18 0.15 0.16 0.11 0.13 0.32 0.26 0.36 0.32 0.12 0.07 0.15 0.13 0.12 0.16 0.13 0.15 0.17 0.18 0.14 0.22 0.42 0.22 0.09 0.19 0.33 0.19 0.19 0.11
0.00 0.00 0.00 0.00 0.00 0.00 0.00 0.00 0.00 0.00 0.00 0.00 0.01 0.00 0.00 0.00 0.00 0.00 0.00 0.00 0.00 0.00 0.00 0.00 0.00 0.00 0.00 0.00 0.00 0.00 0.00 0.00 0.00 0.00 0.01 0.00 0.00 0.01 0.02 0.00 0.05 0.00 0.00 0.01 0.01 0.01 0.01 0.02 0.02 0.02 0.01 0.01 0.02 0.06 0.04 0.07 0.15 0.34 0.35 0.35 0.58 1.03 0.80 0.34 0.08 0.12 0.03 0.14 0.55 0.44 0.17 0.13 0.13 0.12 0.10 0.22 0.27 0.23 0.15 0.18 0.13 0.13 0.25 0.14 0.17 0.24 0.24 0.24 0.50 0.52 0.13 0.36 0.21 0.33 0.27 0.14 0.13
0.00 0.00 0.00 0.00 0.00 0.00 0.00 0.00 0.00 0.00 0.00 0.00 0.00 0.00 0.00 0.00 0.00 0.00 0.00 0.00 0.00 0.00 0.00 0.00 0.00 0.00 0.00 0.00 0.00 0.00 0.00 0.00 0.00 0.00 0.01 0.02 0.01 0.01 0.00 0.00 0.00 0.01 0.00 0.00 0.01 0.01 0.03 0.04 0.05 0.03 0.02 0.02 0.02 0.07 0.11 0.10 0.18 0.19 0.18 0.29 1.29 0.83 0.62 0.96 0.12 0.10 0.05 0.13 0.23 0.32 0.08 0.05 0.09 0.09 0.08 0.03 0.05 0.06 0.08 0.08 0.10 0.16 0.17 0.15 0.25 0.35 0.59 0.29 0.26 0.34 0.21 0.23 0.22 0.37 0.19 0.15 0.08
0.00 0.00 0.00 0.00 0.00 0.00 0.00 0.00 0.00 0.00 0.00 0.00 0.00 0.00 0.01 0.00 0.00 0.00 0.00 0.00 0.00 0.00 0.00 0.00 0.00 0.00 0.00 0.00 0.00 0.00 0.00 0.00 0.00 0.00 0.01 0.01 0.00 0.00 0.00 0.00 0.00 0.00 0.01 0.00 0.01 0.02 0.03 0.06 0.03 0.02 0.04 0.11 0.08 0.06 0.13 0.16 0.18 0.17 0.11 0.17 0.14 0.24 0.31 0.32 0.08 0.01 0.04 0.14 0.08 0.03 0.20 0.02 0.04 0.02 0.05 0.05 0.08 0.07 0.08 0.07 0.09 0.05 0.11 0.43 0.79 0.43 0.18 0.21 0.17 0.13 0.12 0.23 0.24 0.23 0.11 0.19 0.23
0.00 0.00 0.00 0.00 0.00 0.00 0.00 0.00 0.00 0.00 0.00 0.00 0.00 0.00 0.01 0.00 0.00 0.00 0.00 0.00 0.00 0.00 0.00 0.00 0.00 0.00 0.00 0.00 0.00 0.00 0.00 0.00 0.00 0.00 0.00 0.00 0.00 0.01 0.00 0.00 0.00 0.00 0.01 0.02 0.06 0.03 0.06 0.04 0.04 0.03 0.02 0.03 0.15 0.13 0.09 0.05 0.09 0.06 0.03 0.02 0.03 0.02 0.02 0.01 0.00 0.00 0.00 0.00 0.05 0.01 0.02 0.02 0.03 0.03 0.01 0.01 0.14 0.15 0.24 0.10 0.15 0.17 0.20 0.58 0.85 0.17 0.19 0.21 0.23 0.25 0.33 0.34 0.15 0.19 0.13 0.11 0.14
0.00 0.00 0.00 0.00 0.00 0.00 0.00 0.00 0.00 0.00 0.00 0.00 0.00 0.00 0.03 0.03 0.02 0.00 0.00 0.00 0.00 0.00 0.00 0.00 0.00 0.00 0.00 0.00 0.00 0.00 0.00 0.00 0.00 0.00 0.01 0.00 0.00 0.00 0.00 0.00 0.00 0.00 0.02 0.03 0.09 0.07 0.02 0.01 0.01 0.02 0.02 0.02 0.01 0.01 0.01 0.02 0.04 0.02 0.02 0.02 0.01 0.01 0.01 0.03 0.04 0.03 0.00 0.00 0.00 0.06 0.08 0.01 0.16 0.18 0.05 0.03 0.12 0.12 0.07 0.12 0.13 0.24 0.32 0.63 0.51 0.40 0.36 0.18 0.22 0.21 0.24 0.28 0.43 0.10 0.11 0.13 0.35
0.00 0.00 0.00 0.00 0.00 0.00 0.00 0.00 0.00 0.00 0.00 0.00 0.00 0.02 0.02 0.07 0.02 0.00 0.00 0.00 0.00 0.00 0.00 0.00 0.00 0.00 0.00 0.00 0.00 0.00 0.00 0.00 0.00 0.00 0.00 0.00 0.00 0.00 0.00 0.00 0.00 0.00 0.00 0.00 0.00 0.00 0.00 0.00 0.00 0.00 0.00 0.00 0.00 0.00 0.00 0.00 0.00 0.00 0.00 0.01 0.01 0.00 0.00 0.00 0.00 0.01 0.01 0.00 0.00 0.01 0.04 0.68 0.43 0.27 0.39 0.13 0.10 0.07 0.15 0.35 0.68 0.42 0.31 0.06 0.12 0.33 0.34 0.43 0.14 0.14 0.16 0.11 0.15 0.36 0.28 0.58 0.92
0.00 0.00 0.00 0.00 0.00 0.00 0.00 0.00 0.00 0.00 0.00 0.00 0.00 0.02 0.05 0.10 0.15 0.02 0.02 0.00 0.00 0.00 0.00 0.00 0.00 0.00 0.00 0.00 0.00 0.00 0.00 0.00 0.00 0.00 0.00 0.00 0.00 0.00 0.00 0.00 0.00 0.00 0.00 0.00 0.00 0.00 0.00 0.00 0.00 0.00 0.00 0.00 0.00 0.00 0.00 0.00 0.00 0.00 0.00 0.00 0.00 0.00 0.00 0.00 0.00 0.00 0.01 0.02 0.08 0.13 0.15 0.29 0.58 0.39 0.33 0.02 0.04 0.04 0.11 0.23 0.17 0.13 0.12 0.31 0.46 0.48 0.34 0.26 0.19 0.28 0.33 0.81 0.71 0.36 0.95 1.34 0.55
0.00 0.00 0.00 0.00 0.00 0.00 0.00 0.00 0.00 0.00 0.00 0.00 0.00 0.00 0.02 0.03 0.02 0.02 0.01 0.02 0.01 0.00 0.00 0.00 0.00 0.00 0.00 0.00 0.00 0.00 0.00 0.00 0.00 0.00 0.00 0.00 0.00 0.00 0.00 0.00 0.00 0.00 0.00 0.00 0.00 0.00 0.00 0.00 0.00 0.00 0.00 0.00 0.00 0.00 0.00 0.00 0.00 0.00 0.00 0.00 0.00 0.00 0.00 0.00 0.00 0.00 0.00 0.02 0.01 0.02 0.06 0.21 0.27 0.06 0.02 0.01 0.02 0.03 0.05 0.10 0.19 0.23 0.40 0.11 0.39 0.19 0.16 0.12 0.19 0.72 0.69 1.36 0.44 0.95 1.77 1.83 0.14
0.00 0.00 0.00 0.00 0.00 0.00 0.00 0.00 0.00 0.01 0.00 0.01 0.00 0.00 0.01 0.00 0.01 0.00 0.00 0.02 0.00 0.00 0.00 0.00 0.00 0.00 0.00 0.00 0.00 0.00 0.00 0.00 0.00 0.00 0.00 0.00 0.00 0.00 0.00 0.00 0.00 0.00 0.00 0.00 0.00 0.00 0.00 0.00 0.00 0.00 0.00 0.00 0.00 0.00 0.00 0.00 0.00 0.00 0.05 0.03 0.03 0.01 0.00 0.02 0.00 0.01 0.01 0.04 0.02 0.01 0.01 0.00 0.00 0.04 0.07 0.08 0.01 0.02 0.03 0.06 0.08 0.07 0.11 0.09 0.40 0.25 0.14 0.11 0.68 0.81 0.67 0.36 0.97 1.84 0.55 0.17 0.14
0.00 0.00 0.00 0.00 0.00 0.00 0.00 0.00 0.00 0.00 0.00 0.01 0.00 0.00 0.04 0.00 0.01 0.00 0.00 0.00 0.00 0.01 0.00 0.00 0.00 0.00 0.00 0.00 0.00 0.00 0.00 0.00 0.00 0.00 0.00 0.00 0.00 0.00 0.00 0.00 0.00 0.00 0.00 0.00 0.00 0.00 0.00 0.00 0.00 0.00 0.00 0.00 0.00 0.00 0.00 0.00 0.00 0.00 0.00 0.00 0.00 0.02 0.05 0.02 0.03 0.05 0.06 0.01 0.01 0.00 0.00 0.00 0.01 0.01 0.02 0.04 0.03 0.03 0.05 0.06 0.06 0.06 0.15 0.31 0.34 0.23 0.15 0.42 1.15 0.31 0.11 0.21 0.57 0.84 0.62 0.62 0.20
0.00 0.00 0.00 0.00 0.00 0.00 0.00 0.00 0.00 0.00 0.01 0.00 0.00 0.00 0.00 0.00 0.00 0.00 0.00 0.00 0.00 0.00 0.00 0.00 0.00 0.00 0.00 0.00 0.00 0.00 0.00 0.00 0.00 0.00 0.00 0.00 0.00 0.00 0.00 0.00 0.00 0.00 0.00 0.00 0.00 0.00 0.00 0.00 0.00 0.00 0.00 0.00 0.00 0.00 0.00 0.00 0.00 0.00 0.00 0.00 0.00 0.00 0.00 0.01 0.03 0.01 0.00 0.02 0.00 0.00 0.00 0.00 0.01 0.01 0.01 0.01 0.02 0.02 0.02 0.01 0.06 0.18 0.34 0.23 0.35 0.35 0.27 0.19 0.11 0.19 0.15 0.44 0.72 0.38 0.47 0.31 0.26
0.00 0.00 0.00 0.00 0.00 0.00 0.00 0.00 0.00 0.00 0.00 0.00 0.00 0.00 0.00 0.00 0.00 0.00 0.00 0.00 0.00 0.00 0.00 0.00 0.01 0.00 0.00 0.00 0.00 0.00 0.00 0.01 0.00 0.00 0.00 0.00 0.00 0.00 0.00 0.00 0.00 0.00 0.00 0.00 0.00 0.00 0.00 0.00 0.00 0.00 0.00 0.00 0.00 0.00 0.00 0.00 0.00 0.00 0.00 0.00 0.00 0.00 0.00 0.00 0.00 0.00 0.00 0.00 0.00 0.00 0.00 0.00 0.00 0.00 0.01 0.01 0.02 0.02 0.03 0.02 0.06 0.21 0.06 0.07 0.09 0.16 0.26 0.28 0.20 0.18 0.16 0.18 0.64 0.16 0.81 0.50 0.34
0.00 0.00 0.00 0.00 0.00 0.00 0.00 0.00 0.00 0.00 0.00 0.00 0.00 0.00 0.00 0.00 0.00 0.00 0.00 0.00 0.00 0.00 0.00 0.00 0.00 0.00 0.00 0.00 0.00 0.00 0.00 0.00 0.00 0.00 0.00 0.00 0.00 0.00 0.00 0.00 0.00 0.00 0.00 0.00 0.00 0.00 0.00 0.00 0.00 0.00 0.00 0.00 0.00 0.00 0.00 0.00 0.00 0.00 0.00 0.00 0.00 0.00 0.00 0.00 0.00 0.00 0.00 0.00 0.00 0.00 0.00 0.00 0.00 0.02 0.02 0.01 0.01 0.01 0.03 0.02 0.02 0.06 0.04 0.05 0.04 0.02 0.02 0.04 0.21 0.15 0.14 0.09 0.19 0.19 0.46 0.25 0.20
0.00 0.00 0.00 0.00 0.00 0.00 0.00 0.00 0.00 0.00 0.00 0.00 0.00 0.00 0.00 0.00 0.00 0.00 0.00 0.00 0.00 0.00 0.00 0.00 0.00 0.00 0.00 0.00 0.00 0.00 0.00 0.00 0.00 0.00 0.00 0.00 0.00 0.00 0.00 0.00 0.00 0.00 0.00 0.00 0.00 0.00 0.00 0.00 0.00 0.00 0.00 0.00 0.00 0.00 0.00 0.00 0.00 0.00 0.00 0.00 0.00 0.00 0.00 0.00 0.00 0.00 0.00 0.00 0.00 0.00 0.00 0.00 0.00 0.00 0.00 0.00 0.00 0.01 0.01 0.02 0.02 0.03 0.02 0.03 0.03 0.04 0.03 0.06 0.08 0.09 0.11 0.18 0.17 0.34 0.45 0.38 0.45
0.00 0.00 0.00 0.00 0.00 0.00 0.00 0.00 0.00 0.00 0.00 0.00 0.00 0.00 0.00 0.00 0.00 0.00 0.00 0.00 0.00 0.00 0.00 0.00 0.00 0.00 0.00 0.00 0.00 0.00 0.00 0.00 0.00 0.00 0.00 0.00 0.00 0.00 0.00 0.00 0.00 0.00 0.00 0.00 0.00 0.00 0.00 0.00 0.00 0.00 0.00 0.00 0.00 0.00 0.00 0.00 0.00 0.00 0.00 0.00 0.00 0.00 0.00 0.00 0.00 0.00 0.00 0.00 0.00 0.00 0.00 0.00 0.00 0.00 0.00 0.01 0.01 0.01 0.02 0.01 0.01 0.02 0.03 0.03 0.03 0.06 0.09 0.06 0.13 0.07 0.08 0.13 0.13 0.29 0.46 0.36 0.28
0.00 0.00 0.00 0.00 0.00 0.00 0.00 0.00 0.00 0.00 0.00 0.00 0.01 0.00 0.00 0.00 0.00 0.00 0.00 0.00 0.00 0.00 0.00 0.00 0.00 0.00 0.00 0.00 0.01 0.00 0.00 0.00 0.00 0.00 0.00 0.00 0.00 0.00 0.02 0.00 0.00 0.00 0.00 0.00 0.00 0.00 0.00 0.00 0.00 0.00 0.00 0.00 0.00 0.00 0.00 0.00 0.00 0.00 0.00 0.00 0.00 0.00 0.00 0.00 0.00 0.00 0.00 0.00 0.00 0.01 0.01 0.01 0.00 0.00 0.00 0.00 0.00 0.01 0.02 0.02 0.00 0.01 0.02 0.02 0.03 0.05 0.09 0.07 0.02 0.02 0.04 0.03 0.03 0.04 0.09 0.14 0.25
0.00 0.00 0.00 0.00 0.00 0.00 0.00 0.00 0.00 0.00 0.00 0.00 0.00 0.00 0.00 0.00 0.00 0.00 0.00 0.00 0.00 0.00 0.00 0.00 0.00 0.00 0.00 0.00 0.01 0.02 0.00 0.00 0.00 0.00 0.00 0.00 0.01 0.02 0.02 0.02 0.00 0.00 0.00 0.00 0.00 0.00 0.00 0.00 0.00 0.00 0.00 0.00 0.00 0.00 0.00 0.00 0.00 0.00 0.00 0.00 0.00 0.00 0.00 0.00 0.00 0.00 0.00 0.00 0.00 0.00 0.00 0.00 0.00 0.01 0.01 0.00 0.00 0.01 0.01 0.02 0.02 0.01 0.01 0.01 0.02 0.01 0.03 0.03 0.06 0.06 0.09 0.03 0.03 0.03 0.06 0.08 0.08
0.00 0.00 0.00 0.00 0.00 0.00 0.00 0.00 0.00 0.00 0.00 0.00 0.00 0.00 0.00 0.00 0.00 0.00 0.00 0.00 0.00 0.00 0.00 0.00 0.00 0.00 0.00 0.00 0.00 0.00 0.00 0.00 0.00 0.00 0.00 0.00 0.01 0.02 0.00 0.05 0.01 0.00 0.00 0.00 0.00 0.00 0.00 0.00 0.00 0.00 0.00 0.00 0.00 0.00 0.00 0.00 0.00 0.00 0.00 0.00 0.00 0.00 0.00 0.00 0.00 0.00 0.00 0.00 0.00 0.00 0.01 0.01 0.01 0.01 0.00 0.01 0.00 0.01 0.01 0.01 0.01 0.02 0.03 0.02 0.02 0.02 0.02 0.03 0.04 0.03 0.04 0.02 0.03 0.03 0.08 0.04 0.11
0.00 0.00 0.00 0.00 0.00 0.00 0.00 0.00 0.00 0.00 0.00 0.00 0.00 0.00 0.00 0.00 0.01 0.00 0.00 0.00 0.00 0.00 0.00 0.00 0.00 0.00 0.00 0.00 0.00 0.00 0.00 0.02 0.01 0.01 0.00 0.00 0.00 0.01 0.02 0.01 0.00 0.00 0.00 0.00 0.00 0.00 0.00 0.00 0.00 0.00 0.00 0.00 0.00 0.00 0.00 0.00 0.00 0.00 0.00 0.00 0.00 0.00 0.00 0.00 0.00 0.00 0.00 0.00 0.00 0.00 0.00 0.00 0.00 0.00 0.01 0.01 0.02 0.01 0.01 0.01 0.01 0.02 0.02 0.01 0.01 0.01 0.01 0.01 0.02 0.03 0.03 0.03 0.04 0.03 0.03 0.05 0.06
0.00 0.00 0.00 0.00 0.00 0.00 0.00 0.00 0.00 0.00 0.00 0.00 0.00 0.00 0.00 0.00 0.00 0.00 0.00 0.00 0.00 0.00 0.00 0.00 0.00 0.00 0.00 0.00 0.00 0.00 0.00 0.00 0.00 0.01 0.01 0.00 0.01 0.02 0.05 0.05 0.02 0.02 0.00 0.00 0.00 0.00 0.00 0.00 0.00 0.00 0.00 0.00 0.00 0.00 0.00 0.00 0.00 0.00 0.00 0.00 0.00 0.00 0.00 0.00 0.00 0.00 0.00 0.00 0.00 0.00 0.00 0.00 0.00 0.01 0.01 0.00 0.01 0.00 0.01 0.01 0.01 0.02 0.01 0.01 0.00 0.01 0.01 0.01 0.02 0.03 0.03 0.04 0.03 0.04 0.05 0.05 0.08
0.00 0.00 0.00 0.00 0.00 0.00 0.00 0.00 0.00 0.00 0.00 0.00 0.00 0.00 0.00 0.00 0.00 0.00 0.00 0.00 0.00 0.00 0.00 0.00 0.00 0.00 0.00 0.00 0.00 0.00 0.00 0.00 0.00 0.00 0.00 0.00 0.01 0.03 0.01 0.02 0.01 0.02 0.00 0.00 0.00 0.00 0.00 0.00 0.00 0.00 0.00 0.00 0.00 0.00 0.00 0.00 0.00 0.00 0.00 0.00 0.00 0.00 0.00 0.00 0.00 0.00 0.00 0.00 0.00 0.00 0.00 0.00 0.00 0.00 0.00 0.01 0.00 0.01 0.01 0.00 0.01 0.01 0.01 0.01 0.02 0.01 0.03 0.03 0.04 0.03 0.03 0.04 0.03 0.03 0.04 0.06 0.07
0.00 0.00 0.00 0.00 0.00 0.00 0.00 0.00 0.00 0.00 0.00 0.00 0.00 0.00 0.00 0.00 0.00 0.00 0.00 0.00 0.00 0.00 0.00 0.00 0.00 0.00 0.00 0.00 0.00 0.00 0.00 0.00 0.00 0.03 0.02 0.03 0.00 0.02 0.00 0.03 0.01 0.02 0.03 0.00 0.01 0.00 0.00 0.00 0.00 0.00 0.00 0.00 0.00 0.00 0.00 0.00 0.00 0.00 0.00 0.00 0.00 0.00 0.00 0.00 0.00 0.00 0.00 0.00 0.00 0.00 0.00 0.00 0.00 0.00 0.00 0.00 0.00 0.00 0.00 0.01 0.01 0.01 0.01 0.01 0.02 0.02 0.02 0.03 0.04 0.04 0.03 0.04 0.03 0.03 0.05 0.08 0.04